Glendale Luke AFB, AZ

10:01 AM MST on December 06, 2019 (GMT -0700)
Luke Air Force Base

Weather History for KLUF - August, 2019

Change the Weather History Date:

Thursday, August 22, 2019

  Actual Average Record
Temperature  
Mean Temperature 93 °F -  
Max Temperature 107 °F 105 °F 116 °F (1969)
Min Temperature 79 °F 71 °F 57 °F (1980)
Cooling Degree Days 28    
Growing Degree Days 43 (Base 50)    
Moisture  
Dew Point 45 °F    
Average Humidity 17    
Maximum Humidity 25    
Minimum Humidity 11    
Precipitation  
Precipitation 0.00 in - - ()
Sea Level Pressure  
Sea Level Pressure 29.65 in    
Wind  
Wind Speed 6 mph (SW)    
Max Wind Speed 16 mph    
Max Gust Speed -    
Visibility 10 miles    
Events      
Averages and records for this station are not official NWS values.
T = Trace of Precipitation, MM = Missing Value Source: NWS Daily Summary

Daily Weather History Graph

Daily Weather History Graph

Search for Another Location

Airport or City:

Astronomy

Aug. 22, 2019 Rise Set
Actual Time 5:56 AM MST 7:07 PM MST
Civil Twilight 5:30 AM MST 7:33 PM MST
Nautical Twilight 4:59 AM MST 8:04 PM MST
Astronomical Twilight 4:27 AM MST 8:36 PM MST
Moon 11:20 PM MST (8/22) 12:16 PM MST (8/22)
Length of Visible Light 14h 02m
Length of Day
13h 11m
Waning Gibbous, 58% of the Moon is Illuminated
Aug 22
Waning Gibbous
Aug 23
Last Quarter
Aug 30
New
Sep 5
First Quarter
Sep 13
Full

Hourly Weather History & Observations

Time (MST) Temp. Heat Index Dew Point Humidity Pressure Visibility Wind Dir Wind Speed Gust Speed Precip Events Conditions
12:58 AM 93.6 °F - 31.1 °F 11% 29.62 in 10.0 mi Calm Calm - N/A   Clear
1:58 AM 88.0 °F - 34.5 °F 15% 29.63 in 10.0 mi West 4.6 mph - N/A   Clear
2:58 AM 84.4 °F - 37.6 °F 19% 29.63 in 10.0 mi Calm Calm - N/A   Clear
3:58 AM 81.7 °F - 37.9 °F 21% 29.65 in 10.0 mi North 11.5 mph - N/A   Clear
4:58 AM 81.7 °F - 34.0 °F 18% 29.67 in 10.0 mi North 4.6 mph - N/A   Clear
5:58 AM 79.9 °F - 35.2 °F 20% 29.70 in 10.0 mi Calm Calm - N/A   Clear
6:58 AM 80.8 °F - 37.2 °F 21% 29.73 in 10.0 mi Calm Calm - N/A   Clear
7:58 AM 87.8 °F - 39.0 °F 18% 29.73 in 10.0 mi NE 4.6 mph - N/A   Clear
8:58 AM 93.0 °F - 41.7 °F 17% 29.73 in 10.0 mi ENE 4.6 mph - N/A   Clear
9:58 AM 97.0 °F - 41.5 °F 15% 29.73 in 10.0 mi ENE 5.8 mph - N/A   Clear
10:58 AM 100.6 °F - 40.8 °F 13% 29.71 in 10.0 mi ESE 6.9 mph - N/A   Clear
11:58 AM 102.9 °F - 42.6 °F 13% 29.70 in 10.0 mi SE 6.9 mph - N/A   Partly Cloudy
12:58 PM 103.5 °F - 45.0 °F 14% 29.68 in 10.0 mi West 5.8 mph - N/A   Clear
1:21 PM 104.0 °F - 44.6 °F 13% 29.68 in 10.0 mi South 5.8 mph - N/A   Light Drizzle
1:24 PM 104.0 °F - 46.4 °F 14% 29.68 in 10.0 mi SSW 5.8 mph - N/A   Clear
1:58 PM 105.8 °F - 46.8 °F 14% 29.66 in 10.0 mi SSW 8.1 mph - N/A   Clear
2:58 PM 107.6 °F - 48.2 °F 14% 29.62 in 10.0 mi SSW 8.1 mph - N/A   Clear
3:58 PM 107.4 °F - 51.6 °F 16% 29.60 in 10.0 mi WSW 10.4 mph - N/A   Clear
4:58 PM 107.4 °F 105.9 °F 53.2 °F 17% 29.58 in 10.0 mi WSW 16.1 mph - N/A   Clear
5:20 PM 107.6 °F - 51.8 °F 16% 29.57 in 10.0 mi SW 12.7 mph - N/A   Clear
5:30 PM 107.6 °F 106.1 °F 53.6 °F 17% 29.57 in 10.0 mi WSW 16.1 mph - N/A   Clear
5:58 PM 107.4 °F - 51.6 °F 16% 29.57 in 10.0 mi WSW 12.7 mph - N/A   Clear
6:58 PM 104.5 °F - 52.5 °F 18% 29.59 in 10.0 mi WSW 12.7 mph - N/A   Clear
7:58 PM 101.3 °F 99.6 °F 54.0 °F 21% 29.58 in 10.0 mi SW 11.5 mph - N/A   Clear
8:58 PM 97.9 °F 95.8 °F 53.8 °F 23% 29.61 in 10.0 mi SW 13.8 mph - N/A   Clear
9:58 PM 95.2 °F - 51.4 °F 23% 29.64 in 10.0 mi SW 12.7 mph - N/A   Clear
10:58 PM 92.8 °F - 51.8 °F 25% 29.66 in 10.0 mi SW 10.4 mph - N/A   Clear
11:58 PM 90.1 °F - 48.4 °F 24% 29.69 in 8.0 mi WSW 13.8 mph - N/A   Clear